Regional Weather Roundup
Issued by NWS

Home | Current Version | Previous Version | Text Only | Print | Product List | Glossary On
Versions: 1 2 3 4 5 6 7 8 9 10 11 12 13 14 15 16 17 18 19 20 21 22 23 24 25 26 27 28 29 30 31 32 33 34 35 36 37 38 39 40 41 42 43 44 45 46 47 48 49 50
000
ASUS45 KREV 251910
RWRNV
NEVADA REGIONAL WEATHER ROUNDUP
NATIONAL WEATHER SERVICE RENO NV
1200 PM PDT SAT APR 25 2015

NOTE: "FAIR" INDICATES FEW OR NO CLOUDS BELOW 12,000 FEET WITH NO
SIGNIFICANT WEATHER AND/OR OBSTRUCTIONS TO VISIBILITY.

NVZ001-003-004-252000-
WESTERN NEVADA

CITY           SKY/WX    TMP DP  RH WIND       PRES   REMARKS
RENO           PTSUNNY   50  30  46 N16       29.87F
CARSON CITY    PTSUNNY   46  36  66 N15       29.87S
MINDEN         FAIR      48  37  66 N8G21     29.87
SLIDE MTN        N/A     32  32 100 W7          N/A
PYRAMID LAKE     N/A     46 N/A N/A VRB15       N/A
FALLON         PTSUNNY   48  39  71 NW16      29.86R
LOVELOCK       CLOUDY    46  32  58 NW16      29.86R
HAWTHORNE      SUNNY     52  36  54 W8        29.82S
$$

NVZ002-CAZ072-073-252000-
NORTHERN AND CENTRAL SIERRA

CITY           SKY/WX    TMP DP  RH WIND       PRES   REMARKS
S. LAKE TAHOE  CLOUDY    40  30  67 S10       29.87R
TRUCKEE        LGTSLEET  39  37  93 N12       29.89R FOG
SQUAW VLY 8000   N/A     32  32 100 NW8         N/A
SUSANVILLE     PTSUNNY   48  32  53 N6        29.89F
BLUE CANYON    CLOUDY    38  35  89 SW7       29.92S
MAMMOTH LAKES  PTSUNNY   43  25  49 W17G24    29.86R
BRIDGEPORT     PTSUNNY   40  26  57 SW12      29.82F
$$

NVZ030-031-036-252000-
NORTHERN NEVADA

CITY           SKY/WX    TMP DP  RH WIND       PRES   REMARKS
ELKO           LGT RAIN  39  36  89 W9        29.75S
WINNEMUCCA     LGT SNOW  34  34 100 W10       29.85R FOG
WENDOVER       CLOUDY    54  30  40 E6        29.74F
$$

NVZ035-037-252000-
CENTRAL NEVADA

CITY           SKY/WX    TMP DP  RH WIND       PRES   REMARKS
ELY            CLOUDY    46  35  65 SE6       29.72F
EUREKA           N/A     42  36  79 NW15      29.74F
$$

NVZ013-014-252000-
SOUTH CENTRAL NEVADA

CITY           SKY/WX    TMP DP  RH WIND       PRES   REMARKS
TONOPAH        CLOUDY    49  29  46 NW9       29.77F
$$

NVZ017-020-022-252000-
SOUTHERN NEVADA

CITY           SKY/WX    TMP DP  RH WIND       PRES   REMARKS
LAS VEGAS      CLOUDY    63  29  27 S18G26    29.71F
N. LAS VEGAS   CLOUDY    63  28  26 S17G26    29.72F
NELLIS AFB     CLOUDY    65  32  29 S16       29.73F
HENDERSON      CLOUDY    62  31  31 SW21G29   29.76F
MERCURY        CLOUDY    62  29  28 SW21G31   29.72F
$$


USA.gov is the U.S. government's official web portal to all federal, state and local government web resources and services.